Time,TemperatureF,DewpointF,PressureIn,WindDirection,WindDirectionDegrees,WindSpeedMPH,WindSpeedGustMPH,Humidity,HourlyPrecipIn,Conditions,Clouds,dailyrainin,SoftwareType,DateUTC
2013-08-04 00:01:00,61.0,58.0,28.64,SE,135,1.2,1.2,90,0.00,RA,SKC,0.00,WeatherDisplay:10.37,2013-08-04 04:01:00,
2013-08-04 00:03:00,61.0,58.0,28.64,SE,135,1.6,1.6,90,0.00,RA,SKC,0.00,WeatherDisplay:10.37,2013-08-04 04:03:00,
2013-08-04 00:04:00,61.0,58.0,28.64,SE,135,1.2,1.2,90,0.00,RA,SKC,0.00,WeatherDisplay:10.37,2013-08-04 04:04:00,
2013-08-04 00:09:00,60.6,58.9,28.64,SE,135,1.2,0.0,94,0.00,RA,SKC,0.00,WeatherDisplay:10.37,2013-08-04 04:09:00,
2013-08-04 00:14:00,60.4,58.7,28.64,SE,135,0.0,0.0,94,0.00,CLR,SKC,0.00,WeatherDisplay:10.37,2013-08-04 04:14:00,
2013-08-04 00:18:00,60.1,58.3,28.65,SE,135,0.0,0.0,94,0.00,CLR,SKC,0.00,WeatherDisplay:10.37,2013-08-04 04:18:00,
2013-08-04 00:24:00,59.7,58.3,28.64,SE,135,0.0,0.0,95,0.00,CLR,SKC,0.00,WeatherDisplay:10.37,2013-08-04 04:24:00,
2013-08-04 00:29:00,59.5,58.1,28.64,SE,135,0.0,0.0,95,0.00,CLR,SKC,0.00,WeatherDisplay:10.37,2013-08-04 04:29:00,
2013-08-04 00:33:00,59.4,58.2,28.64,SE,135,0.0,0.0,96,0.00,CLR,SKC,0.00,WeatherDisplay:10.37,2013-08-04 04:33:00,
2013-08-04 00:39:00,59.4,58.5,28.64,SE,135,0.0,0.0,97,0.00,CLR,SKC,0.00,WeatherDisplay:10.37,2013-08-04 04:39:00,
2013-08-04 00:44:00,59.4,58.5,28.64,SE,135,0.0,0.0,97,0.00,CLR,SKC,0.00,WeatherDisplay:10.37,2013-08-04 04:44:00,
2013-08-04 00:49:00,59.2,58.3,28.64,SE,135,0.0,0.0,97,0.00,CLR,SKC,0.00,WeatherDisplay:10.37,2013-08-04 04:49:00,
2013-08-04 00:53:00,59.2,58.3,28.64,SE,135,0.0,0.0,97,0.00,CLR,SKC,0.00,WeatherDisplay:10.37,2013-08-04 04:53:00,
2013-08-04 00:59:00,59.2,58.6,28.64,SE,135,0.0,0.0,98,0.00,CLR,SKC,0.00,WeatherDisplay:10.37,2013-08-04 04:59:00,
2013-08-04 01:04:00,59.2,58.6,28.64,SE,135,0.0,0.0,98,0.00,CLR,SKC,0.00,WeatherDisplay:10.37,2013-08-04 05:04:00,
2013-08-04 01:09:00,59.0,58.4,28.64,SE,135,0.0,0.0,98,0.00,CLR,SKC,0.00,WeatherDisplay:10.37,2013-08-04 05:09:00,
2013-08-04 01:14:00,58.8,58.3,28.64,SE,135,0.0,0.0,98,0.00,CLR,SKC,0.00,WeatherDisplay:10.37,2013-08-04 05:14:00,
2013-08-04 01:18:00,58.8,58.3,28.64,SE,135,0.0,0.0,98,0.00,CLR,SKC,0.00,WeatherDisplay:10.37,2013-08-04 05:18:00,
2013-08-04 01:24:00,58.6,58.4,28.64,SE,135,0.0,0.0,99,0.00,CLR,SKC,0.00,WeatherDisplay:10.37,2013-08-04 05:24:00,
2013-08-04 01:29:00,58.6,58.4,28.64,SE,135,0.0,0.0,99,0.00,CLR,SKC,0.00,WeatherDisplay:10.37,2013-08-04 05:29:00,
2013-08-04 01:34:00,58.3,58.3,28.64,SE,135,0.0,0.0,100,0.00,CLR,SKC,0.00,WeatherDisplay:10.37,2013-08-04 05:34:00,
2013-08-04 01:39:00,57.9,57.6,28.64,SE,135,0.0,0.0,99,0.00,CLR,SKC,0.00,WeatherDisplay:10.37,2013-08-04 05:39:00,
2013-08-04 01:43:00,57.6,57.3,28.64,SE,135,0.0,0.0,99,0.00,CLR,SKC,0.00,WeatherDisplay:10.37,2013-08-04 05:43:00,
2013-08-04 01:49:00,57.4,57.1,28.64,SE,135,0.0,0.0,99,0.00,CLR,SKC,0.00,WeatherDisplay:10.37,2013-08-04 05:49:00,
2013-08-04 01:54:00,57.4,57.1,28.64,SE,135,0.0,0.0,99,0.00,CLR,SKC,0.00,WeatherDisplay:10.37,2013-08-04 05:54:00,
2013-08-04 01:58:00,57.4,57.1,28.64,SE,135,0.0,0.0,99,0.00,CLR,SKC,0.00,WeatherDisplay:10.37,2013-08-04 05:58:00,
2013-08-04 02:04:00,57.4,57.1,28.64,SE,135,0.0,0.0,99,0.00,CLR,SKC,0.00,WeatherDisplay:10.37,2013-08-04 06:04:00,
2013-08-04 02:09:00,57.2,56.6,28.64,SE,135,0.0,0.0,98,0.00,CLR,SKC,0.00,WeatherDisplay:10.37,2013-08-04 06:09:00,
2013-08-04 02:13:00,57.4,56.8,28.64,SE,135,0.0,0.0,98,0.00,CLR,SKC,0.00,WeatherDisplay:10.37,2013-08-04 06:13:00,
2013-08-04 02:18:00,57.4,56.8,28.64,NE,45,0.0,0.0,98,0.00,CLR,SKC,0.00,WeatherDisplay:10.37,2013-08-04 06:18:00,
2013-08-04 02:23:00,57.2,56.6,28.64,NW,315,0.0,0.0,98,0.00,CLR,SKC,0.00,WeatherDisplay:10.37,2013-08-04 06:23:00,
2013-08-04 02:29:00,57.2,56.9,28.64,NW,315,0.0,0.0,99,0.00,CLR,SKC,0.00,WeatherDisplay:10.37,2013-08-04 06:29:00,
2013-08-04 02:34:00,57.0,56.5,28.64,NW,315,0.0,0.0,98,0.00,CLR,SKC,0.00,WeatherDisplay:10.37,2013-08-04 06:34:00,
2013-08-04 02:38:00,57.0,56.5,28.64,NW,315,0.0,0.0,98,0.00,CLR,SKC,0.00,WeatherDisplay:10.37,2013-08-04 06:38:00,
2013-08-04 02:44:00,57.0,56.5,28.64,NW,315,0.0,0.0,98,0.00,CLR,SKC,0.00,WeatherDisplay:10.37,2013-08-04 06:44:00,
2013-08-04 02:49:00,56.8,56.3,28.64,NW,315,0.0,0.0,98,0.00,CLR,SKC,0.00,WeatherDisplay:10.37,2013-08-04 06:49:00,
2013-08-04 02:53:00,57.0,56.2,28.64,NW,315,0.0,0.0,97,0.00,CLR,SKC,0.00,WeatherDisplay:10.37,2013-08-04 06:53:00,
2013-08-04 02:59:00,56.8,56.0,28.64,NW,315,0.0,0.0,97,0.00,CLR,SKC,0.00,WeatherDisplay:10.37,2013-08-04 06:59:00,
2013-08-04 03:04:00,56.8,56.0,28.64,SE,135,0.0,0.0,97,0.00,CLR,SKC,0.00,WeatherDisplay:10.37,2013-08-04 07:04:00,
2013-08-04 03:09:00,56.7,55.5,28.64,SE,135,0.0,0.0,96,0.00,CLR,SKC,0.00,WeatherDisplay:10.37,2013-08-04 07:09:00,
2013-08-04 03:13:00,56.3,55.2,28.64,SE,135,0.0,0.0,96,0.00,CLR,SKC,0.00,WeatherDisplay:10.37,2013-08-04 07:13:00,
2013-08-04 03:19:00,56.3,54.9,28.64,SE,135,0.0,0.0,95,0.00,CLR,SKC,0.00,WeatherDisplay:10.37,2013-08-04 07:19:00,
2013-08-04 03:24:00,56.3,54.9,28.64,North,0,0.0,0.0,95,0.00,CLR,SKC,0.00,WeatherDisplay:10.37,2013-08-04 07:24:00,
2013-08-04 03:29:00,56.1,54.4,28.64,North,0,0.0,0.0,94,0.00,CLR,SKC,0.00,WeatherDisplay:10.37,2013-08-04 07:29:00,
2013-08-04 03:33:00,56.1,54.4,28.64,North,0,0.0,0.0,94,0.00,CLR,SKC,0.00,WeatherDisplay:10.37,2013-08-04 07:33:00,
2013-08-04 03:38:00,55.8,54.1,28.64,North,0,0.0,0.0,94,0.00,CLR,SKC,0.00,WeatherDisplay:10.37,2013-08-04 07:38:00,
2013-08-04 03:43:00,55.4,53.4,28.64,North,0,0.0,0.0,93,0.00,CLR,SKC,0.00,WeatherDisplay:10.37,2013-08-04 07:43:00,
2013-08-04 03:48:00,55.0,53.1,28.64,North,0,0.0,0.0,93,0.00,CLR,SKC,0.00,WeatherDisplay:10.37,2013-08-04 07:48:00,
2013-08-04 03:53:00,54.9,52.6,28.64,North,0,0.0,0.0,92,0.00,CLR,SKC,0.00,WeatherDisplay:10.37,2013-08-04 07:53:00,
2013-08-04 03:58:00,54.9,52.6,28.64,SE,135,0.0,0.0,92,0.00,CLR,SKC,0.00,WeatherDisplay:10.37,2013-08-04 07:58:00,
2013-08-04 04:03:00,54.9,52.6,28.64,SE,135,0.0,0.0,92,0.00,CLR,SKC,0.00,WeatherDisplay:10.37,2013-08-04 08:03:00,
2013-08-04 04:08:00,55.0,52.8,28.64,SE,135,0.0,0.0,92,0.00,CLR,SKC,0.00,WeatherDisplay:10.37,2013-08-04 08:08:00,
2013-08-04 04:13:00,55.2,52.9,28.64,SE,135,0.0,0.0,92,0.00,CLR,SKC,0.00,WeatherDisplay:10.37,2013-08-04 08:13:00,
2013-08-04 04:18:00,55.4,53.1,28.65,SE,135,0.0,0.0,92,0.00,CLR,SKC,0.00,WeatherDisplay:10.37,2013-08-04 08:18:00,
2013-08-04 04:23:00,55.4,53.1,28.64,SE,135,0.0,0.0,92,0.00,CLR,SKC,0.00,WeatherDisplay:10.37,2013-08-04 08:23:00,
2013-08-04 04:28:00,55.4,52.8,28.64,SE,135,0.0,0.0,91,0.00,CLR,SKC,0.00,WeatherDisplay:10.37,2013-08-04 08:28:00,
2013-08-04 04:33:00,55.2,52.3,28.64,SE,135,0.0,0.0,90,0.00,CLR,SKC,0.00,WeatherDisplay:10.37,2013-08-04 08:33:00,
2013-08-04 04:38:00,55.0,52.2,28.65,SE,135,0.0,0.0,90,0.00,CLR,SKC,0.00,WeatherDisplay:10.37,2013-08-04 08:38:00,
2013-08-04 04:43:00,55.2,52.3,28.64,South,180,0.0,0.0,90,0.00,CLR,SKC,0.00,WeatherDisplay:10.37,2013-08-04 08:43:00,
2013-08-04 04:48:00,55.4,52.2,28.64,East,90,0.0,0.0,89,0.00,CLR,SKC,0.00,WeatherDisplay:10.37,2013-08-04 08:48:00,
2013-08-04 04:53:00,55.4,52.2,28.65,NE,45,0.0,0.0,89,0.00,CLR,SKC,0.00,WeatherDisplay:10.37,2013-08-04 08:53:00,
2013-08-04 04:58:00,55.2,51.7,28.65,SE,135,0.0,0.0,88,0.00,CLR,SKC,0.00,WeatherDisplay:10.37,2013-08-04 08:58:00,
2013-08-04 05:03:00,55.2,51.7,28.65,South,180,0.0,0.0,88,0.00,CLR,SKC,0.00,WeatherDisplay:10.37,2013-08-04 09:03:00,
2013-08-04 05:08:00,55.2,51.1,28.65,SE,135,0.0,0.0,86,0.00,CLR,SKC,0.00,WeatherDisplay:10.37,2013-08-04 09:08:00,
2013-08-04 05:13:00,55.4,51.6,28.65,SE,135,0.0,0.0,87,0.00,CLR,SKC,0.00,WeatherDisplay:10.37,2013-08-04 09:13:00,
2013-08-04 05:18:00,55.2,51.1,28.65,SE,135,0.0,0.0,86,0.00,CLR,SKC,0.00,WeatherDisplay:10.37,2013-08-04 09:18:00,
2013-08-04 05:23:00,55.2,50.8,28.65,SE,135,0.0,0.0,85,0.00,CLR,SKC,0.00,WeatherDisplay:10.37,2013-08-04 09:23:00,
2013-08-04 05:28:00,55.2,50.8,28.65,SE,135,0.0,0.0,85,0.00,CLR,SKC,0.00,WeatherDisplay:10.37,2013-08-04 09:28:00,
2013-08-04 05:33:00,55.4,50.6,28.66,SE,135,0.0,0.0,84,0.00,CLR,SKC,0.00,WeatherDisplay:10.37,2013-08-04 09:33:00,
2013-08-04 05:38:00,55.2,50.1,28.66,SE,135,0.0,0.0,83,0.00,CLR,SKC,0.00,WeatherDisplay:10.37,2013-08-04 09:38:00,
2013-08-04 05:43:00,55.2,49.8,28.66,SE,135,0.0,0.0,82,0.00,CLR,SKC,0.00,WeatherDisplay:10.37,2013-08-04 09:43:00,
2013-08-04 05:48:00,54.9,50.4,28.67,SE,135,0.0,0.0,85,0.00,CLR,SKC,0.00,WeatherDisplay:10.37,2013-08-04 09:48:00,
2013-08-04 05:53:00,54.9,50.1,28.66,SE,135,0.0,0.0,84,0.00,CLR,SKC,0.00,WeatherDisplay:10.37,2013-08-04 09:53:00,
2013-08-04 05:58:00,55.2,50.5,28.67,SE,135,0.0,0.0,84,0.00,CLR,SKC,0.00,WeatherDisplay:10.37,2013-08-04 09:58:00,
2013-08-04 06:03:00,55.2,50.5,28.66,SE,135,0.0,0.0,84,0.00,CLR,SKC,0.00,WeatherDisplay:10.37,2013-08-04 10:03:00,
2013-08-04 06:08:00,55.6,50.5,28.67,South,180,0.0,0.0,83,0.00,CLR,SKC,0.00,WeatherDisplay:10.37,2013-08-04 10:08:00,
2013-08-04 06:13:00,55.6,50.2,28.67,South,180,0.0,0.0,82,0.00,CLR,SKC,0.00,WeatherDisplay:10.37,2013-08-04 10:13:00,
2013-08-04 06:18:00,55.6,49.8,28.67,South,180,0.0,0.0,81,0.00,CLR,SKC,0.00,WeatherDisplay:10.37,2013-08-04 10:18:00,
2013-08-04 06:23:00,55.8,49.7,28.67,South,180,0.0,0.0,80,0.00,CLR,SKC,0.00,WeatherDisplay:10.37,2013-08-04 10:23:00,
2013-08-04 06:28:00,55.9,49.5,28.68,North,0,5.8,5.8,79,0.00,CLR,SKC,0.00,WeatherDisplay:10.37,2013-08-04 10:28:00,
2013-08-04 06:33:00,55.6,49.2,28.68,NW,315,3.5,3.5,79,0.00,CLR,SKC,0.00,WeatherDisplay:10.37,2013-08-04 10:33:00,
2013-08-04 06:38:00,55.0,48.6,28.68,South,180,0.0,0.0,79,0.00,CLR,SKC,0.00,WeatherDisplay:10.37,2013-08-04 10:38:00,
2013-08-04 06:43:00,55.0,48.6,28.67,West,270,1.2,0.0,79,0.00,CLR,SKC,0.00,WeatherDisplay:10.37,2013-08-04 10:43:00,
2013-08-04 06:48:00,55.4,49.0,28.68,NW,315,3.5,3.5,79,0.00,CLR,SKC,0.00,WeatherDisplay:10.37,2013-08-04 10:48:00,
2013-08-04 06:53:00,56.1,50.7,28.68,West,270,4.6,4.6,82,0.00,CLR,SKC,0.00,WeatherDisplay:10.37,2013-08-04 10:53:00,
2013-08-04 06:58:00,56.3,51.8,28.68,NW,315,4.6,0.0,85,0.01,RA,SKC,0.01,WeatherDisplay:10.37,2013-08-04 10:58:00,
2013-08-04 07:03:00,56.5,51.7,28.68,West,270,3.5,3.5,84,0.01,RA,SKC,0.01,WeatherDisplay:10.37,2013-08-04 11:03:00,
2013-08-04 07:08:00,56.5,51.7,28.68,West,270,3.5,3.5,84,0.01,CLR,SKC,0.01,WeatherDisplay:10.37,2013-08-04 11:08:00,
2013-08-04 07:13:00,56.8,52.7,28.68,NW,315,4.6,4.6,86,0.01,CLR,SKC,0.01,WeatherDisplay:10.37,2013-08-04 11:13:00,
2013-08-04 07:18:00,56.8,51.7,28.68,WNW,292,5.8,5.8,83,0.02,RA,SKC,0.02,WeatherDisplay:10.37,2013-08-04 11:18:00,
2013-08-04 07:23:00,56.7,50.6,28.68,North,0,5.8,5.8,80,0.02,RA,SKC,0.02,WeatherDisplay:10.37,2013-08-04 11:23:00,
2013-08-04 07:28:00,56.7,50.6,28.68,NE,45,3.5,3.5,80,0.02,,SKC,0.02,WeatherDisplay:10.37,2013-08-04 11:28:00,
2013-08-04 07:33:00,56.7,49.2,28.68,NW,315,5.8,5.8,76,0.02,CLR,SKC,0.02,WeatherDisplay:10.37,2013-08-04 11:33:00,
2013-08-04 07:38:00,56.8,47.9,28.68,North,0,4.6,4.6,72,0.02,CLR,SKC,0.02,WeatherDisplay:10.37,2013-08-04 11:38:00,
2013-08-04 07:43:00,57.0,48.4,28.68,NE,45,2.3,2.3,73,0.02,CLR,SKC,0.02,WeatherDisplay:10.37,2013-08-04 11:43:00,
2013-08-04 07:48:00,57.2,46.3,28.68,North,0,3.5,3.5,67,0.02,CLR,SKC,0.02,WeatherDisplay:10.37,2013-08-04 11:48:00,
2013-08-04 07:53:00,57.4,45.3,28.68,North,0,2.3,0.0,64,0.02,CLR,SKC,0.02,WeatherDisplay:10.37,2013-08-04 11:53:00,
2013-08-04 07:58:00,57.4,45.3,28.68,NE,45,2.3,2.3,64,0.01,CLR,SKC,0.02,WeatherDisplay:10.37,2013-08-04 11:58:00,
2013-08-04 08:03:00,57.4,45.3,28.68,NE,45,2.3,2.3,64,0.01,CLR,SKC,0.02,WeatherDisplay:10.37,2013-08-04 12:03:00,
2013-08-04 08:08:00,57.7,43.5,28.68,NE,45,2.3,2.3,59,0.01,CLR,SKC,0.02,WeatherDisplay:10.37,2013-08-04 12:08:00,
2013-08-04 08:13:00,57.9,41.8,28.69,NW,315,3.5,3.5,55,0.01,CLR,SKC,0.02,WeatherDisplay:10.37,2013-08-04 12:13:00,
2013-08-04 08:18:00,57.9,41.4,28.69,NE,45,3.5,3.5,54,0.00,CLR,SKC,0.02,WeatherDisplay:10.37,2013-08-04 12:18:00,
2013-08-04 08:23:00,58.1,39.0,28.69,West,270,3.5,3.5,49,0.00,CLR,SKC,0.02,WeatherDisplay:10.37,2013-08-04 12:23:00,
2013-08-04 08:28:00,58.3,37.0,28.69,West,270,2.3,0.0,45,0.00,CLR,SKC,0.02,WeatherDisplay:10.37,2013-08-04 12:28:00,
2013-08-04 08:33:00,58.5,36.0,28.69,NW,315,2.3,2.3,43,0.00,CLR,SKC,0.02,WeatherDisplay:10.37,2013-08-04 12:33:00,
2013-08-04 08:38:00,58.8,33.2,28.70,NW,315,3.5,3.5,38,0.00,CLR,SKC,0.02,WeatherDisplay:10.37,2013-08-04 12:38:00,
2013-08-04 08:43:00,59.2,30.1,28.69,NW,315,1.2,1.2,33,0.00,CLR,SKC,0.02,WeatherDisplay:10.37,2013-08-04 12:43:00,
2013-08-04 08:48:00,59.5,28.8,28.69,NW,315,3.8,3.8,31,0.00,CLR,SKC,0.02,WeatherDisplay:10.37,2013-08-04 12:48:00,
2013-08-04 08:53:00,59.7,29.0,28.70,NW,315,3.5,3.5,31,0.00,CLR,SKC,0.02,WeatherDisplay:10.37,2013-08-04 12:53:00,
2013-08-04 08:58:00,60.1,29.3,28.70,NW,315,3.5,3.5,31,0.00,CLR,SKC,0.02,WeatherDisplay:10.37,2013-08-04 12:58:00,
2013-08-04 09:03:00,60.1,29.3,28.70,West,270,3.5,3.5,31,0.00,CLR,SKC,0.02,WeatherDisplay:10.37,2013-08-04 13:03:00,
2013-08-04 09:08:00,60.1,29.3,28.71,North,0,5.8,5.8,31,0.00,CLR,SKC,0.02,WeatherDisplay:10.37,2013-08-04 13:08:00,
2013-08-04 09:13:00,60.4,29.6,28.70,NW,315,4.6,4.6,31,0.00,CLR,SKC,0.02,WeatherDisplay:10.37,2013-08-04 13:13:00,
2013-08-04 09:18:00,60.6,29.8,28.71,NW,315,4.6,4.6,31,0.00,CLR,SKC,0.02,WeatherDisplay:10.37,2013-08-04 13:18:00,
2013-08-04 09:23:00,60.8,29.9,28.71,NW,315,3.5,3.5,31,0.00,CLR,SKC,0.02,WeatherDisplay:10.37,2013-08-04 13:23:00,
2013-08-04 09:28:00,61.0,30.1,28.70,West,270,4.6,4.6,31,0.00,CLR,SKC,0.02,WeatherDisplay:10.37,2013-08-04 13:28:00,
2013-08-04 09:33:00,61.0,30.1,28.70,WNW,292,5.8,5.8,31,0.00,CLR,SKC,0.02,WeatherDisplay:10.37,2013-08-04 13:33:00,
2013-08-04 09:39:00,61.2,30.3,28.70,North,0,5.8,5.8,31,0.00,CLR,SKC,0.02,WeatherDisplay:10.37,2013-08-04 13:39:00,
2013-08-04 09:44:00,61.5,30.6,28.70,NW,315,5.8,5.8,31,0.00,CLR,SKC,0.02,WeatherDisplay:10.37,2013-08-04 13:44:00,
2013-08-04 09:49:00,62.1,31.0,28.71,NW,315,4.6,4.6,31,0.00,CLR,SKC,0.02,WeatherDisplay:10.37,2013-08-04 13:49:00,
2013-08-04 09:54:00,63.0,31.8,28.71,NW,315,3.5,3.8,31,0.00,CLR,SKC,0.02,WeatherDisplay:10.37,2013-08-04 13:54:00,
2013-08-04 09:59:00,64.0,32.8,28.71,NW,315,5.8,5.8,31,0.00,CLR,SKC,0.02,WeatherDisplay:10.37,2013-08-04 13:59:00,
2013-08-04 10:04:00,64.8,33.4,28.71,North,0,6.9,6.9,31,0.00,CLR,SKC,0.02,WeatherDisplay:10.37,2013-08-04 14:04:00,
2013-08-04 10:09:00,64.8,33.4,28.71,NW,315,6.9,6.9,31,0.00,CLR,SKC,0.02,WeatherDisplay:10.37,2013-08-04 14:09:00,
2013-08-04 10:14:00,65.3,33.9,28.71,North,0,4.6,4.6,31,0.00,CLR,SKC,0.02,WeatherDisplay:10.37,2013-08-04 14:14:00,
2013-08-04 10:19:00,66.4,34.8,28.70,West,270,8.1,8.1,31,0.00,CLR,SKC,0.02,WeatherDisplay:10.37,2013-08-04 14:19:00,
2013-08-04 10:24:00,66.6,35.0,28.70,North,0,9.2,9.2,31,0.00,CLR,SKC,0.02,WeatherDisplay:10.37,2013-08-04 14:24:00,
2013-08-04 10:29:00,67.1,35.4,28.71,West,270,5.8,5.8,31,0.00,CLR,SKC,0.02,WeatherDisplay:10.37,2013-08-04 14:29:00,
2013-08-04 10:34:00,68.0,36.2,28.71,NE,45,5.8,5.8,31,0.00,CLR,SKC,0.02,WeatherDisplay:10.37,2013-08-04 14:34:00,
2013-08-04 10:39:00,68.7,36.8,28.71,North,0,5.8,5.8,31,0.00,CLR,SKC,0.02,WeatherDisplay:10.37,2013-08-04 14:39:00,
2013-08-04 10:44:00,67.8,36.1,28.71,West,270,12.7,12.7,31,0.00,CLR,SKC,0.02,WeatherDisplay:10.37,2013-08-04 14:44:00,
2013-08-04 10:49:00,67.6,35.9,28.71,WNW,292,9.2,9.2,31,0.00,CLR,SKC,0.02,WeatherDisplay:10.37,2013-08-04 14:49:00,
2013-08-04 10:54:00,68.9,37.0,28.71,West,270,11.5,11.5,31,0.00,CLR,SKC,0.02,WeatherDisplay:10.37,2013-08-04 14:54:00,
2013-08-04 10:59:00,69.6,37.6,28.71,West,270,12.7,12.7,31,0.00,CLR,SKC,0.02,WeatherDisplay:10.37,2013-08-04 14:59:00,
2013-08-04 11:04:00,69.8,37.8,28.71,West,270,8.1,8.1,31,0.00,CLR,SKC,0.02,WeatherDisplay:10.37,2013-08-04 15:04:00,
2013-08-04 11:09:00,69.4,37.5,28.70,West,270,11.5,11.5,31,0.00,CLR,SKC,0.02,WeatherDisplay:10.37,2013-08-04 15:09:00,
2013-08-04 11:14:00,69.1,37.2,28.71,NW,315,12.7,12.7,31,0.00,CLR,SKC,0.02,WeatherDisplay:10.37,2013-08-04 15:14:00,
2013-08-04 11:19:00,69.4,37.5,28.71,NW,315,9.2,9.2,31,0.00,CLR,SKC,0.02,WeatherDisplay:10.37,2013-08-04 15:19:00,
2013-08-04 11:24:00,70.0,37.9,28.71,NW,315,10.4,10.4,31,0.00,CLR,SKC,0.02,WeatherDisplay:10.37,2013-08-04 15:24:00,
2013-08-04 11:29:00,69.6,37.6,28.71,West,270,10.4,10.4,31,0.00,CLR,SKC,0.02,WeatherDisplay:10.37,2013-08-04 15:29:00,
2013-08-04 11:34:00,68.7,36.8,28.72,North,0,13.8,13.8,31,0.00,CLR,SKC,0.02,WeatherDisplay:10.37,2013-08-04 15:34:00,
2013-08-04 11:40:00,69.3,37.3,28.72,West,270,9.2,9.2,31,0.00,CLR,SKC,0.02,WeatherDisplay:10.37,2013-08-04 15:40:00,
2013-08-04 11:45:00,70.2,38.1,28.72,North,0,8.1,8.1,31,0.00,CLR,SKC,0.02,WeatherDisplay:10.37,2013-08-04 15:45:00,
2013-08-04 11:50:00,70.2,38.1,28.71,West,270,9.2,9.2,31,0.00,CLR,SKC,0.02,WeatherDisplay:10.37,2013-08-04 15:50:00,
2013-08-04 11:55:00,69.6,37.6,28.72,NW,315,4.6,4.6,31,0.00,CLR,SKC,0.02,WeatherDisplay:10.37,2013-08-04 15:55:00,
2013-08-04 12:00:00,69.1,37.2,28.72,WNW,292,15.0,15.0,31,0.00,CLR,SKC,0.02,WeatherDisplay:10.37,2013-08-04 16:00:00,
2013-08-04 12:05:00,68.9,37.0,28.72,NW,315,8.1,8.1,31,0.00,CLR,SKC,0.02,WeatherDisplay:10.37,2013-08-04 16:05:00,
2013-08-04 12:10:00,70.7,38.6,28.72,West,270,10.4,10.4,31,0.00,CLR,SKC,0.02,WeatherDisplay:10.37,2013-08-04 16:10:00,
2013-08-04 12:15:00,72.7,40.3,28.72,NW,315,8.1,8.1,31,0.00,CLR,SKC,0.02,WeatherDisplay:10.37,2013-08-04 16:15:00,
2013-08-04 12:20:00,71.8,39.5,28.72,WNW,292,12.7,12.7,31,0.00,CLR,SKC,0.02,WeatherDisplay:10.37,2013-08-04 16:20:00,
2013-08-04 12:25:00,72.7,40.3,28.72,NW,315,12.7,12.7,31,0.00,CLR,SKC,0.02,WeatherDisplay:10.37,2013-08-04 16:25:00,
2013-08-04 12:30:00,72.3,40.0,28.72,West,270,9.2,9.2,31,0.00,CLR,SKC,0.02,WeatherDisplay:10.37,2013-08-04 16:30:00,
2013-08-04 12:35:00,72.3,40.0,28.71,WNW,292,12.7,12.7,31,0.00,CLR,SKC,0.02,WeatherDisplay:10.37,2013-08-04 16:35:00,
2013-08-04 12:40:00,72.1,39.8,28.72,NW,315,5.8,6.9,31,0.00,CLR,SKC,0.02,WeatherDisplay:10.37,2013-08-04 16:40:00,
2013-08-04 12:45:00,72.1,39.8,28.72,NW,315,4.6,4.6,31,0.00,CLR,SKC,0.02,WeatherDisplay:10.37,2013-08-04 16:45:00,
2013-08-04 12:50:00,71.6,39.3,28.71,West,270,8.1,8.1,31,0.00,CLR,SKC,0.02,WeatherDisplay:10.37,2013-08-04 16:50:00,
2013-08-04 12:55:00,70.9,38.7,28.72,NW,315,12.7,12.7,31,0.00,CLR,SKC,0.02,WeatherDisplay:10.37,2013-08-04 16:55:00,
2013-08-04 13:00:00,71.2,39.0,28.72,NNW,338,10.4,10.4,31,0.00,CLR,SKC,0.02,WeatherDisplay:10.37,2013-08-04 17:00:00,
2013-08-04 13:05:00,71.2,39.0,28.72,NNW,338,3.5,3.5,31,0.00,CLR,SKC,0.02,WeatherDisplay:10.37,2013-08-04 17:05:00,
2013-08-04 13:10:00,72.3,39.1,28.72,NW,315,10.4,10.4,30,0.00,CLR,SKC,0.02,WeatherDisplay:10.37,2013-08-04 17:10:00,
2013-08-04 13:15:00,73.0,39.8,28.71,West,270,9.2,9.2,30,0.00,CLR,SKC,0.02,WeatherDisplay:10.37,2013-08-04 17:15:00,
2013-08-04 13:20:00,74.1,42.4,28.71,West,270,10.4,10.4,32,0.00,CLR,SKC,0.02,WeatherDisplay:10.37,2013-08-04 17:20:00,
2013-08-04 13:25:00,74.1,42.4,28.71,West,270,8.1,8.1,32,0.00,CLR,SKC,0.02,WeatherDisplay:10.37,2013-08-04 17:25:00,
2013-08-04 13:30:00,73.0,46.6,28.71,West,270,10.4,10.4,39,0.00,CLR,SKC,0.02,WeatherDisplay:10.37,2013-08-04 17:30:00,
2013-08-04 13:35:00,72.1,48.4,28.71,NW,315,5.8,5.8,43,0.00,CLR,SKC,0.02,WeatherDisplay:10.37,2013-08-04 17:35:00,
2013-08-04 13:41:00,71.6,50.9,28.72,West,270,8.1,8.1,48,0.00,CLR,SKC,0.02,WeatherDisplay:10.37,2013-08-04 17:41:00,
2013-08-04 13:46:00,71.6,51.4,28.71,West,270,5.8,5.8,49,0.00,CLR,SKC,0.02,WeatherDisplay:10.37,2013-08-04 17:46:00,
2013-08-04 13:51:00,72.1,51.9,28.71,NW,315,5.8,5.8,49,0.00,CLR,SKC,0.02,WeatherDisplay:10.37,2013-08-04 17:51:00,
2013-08-04 13:56:00,72.7,51.9,28.71,NW,315,12.7,12.7,48,0.00,CLR,SKC,0.02,WeatherDisplay:10.37,2013-08-04 17:56:00,
2013-08-04 14:01:00,74.1,53.2,28.71,NW,315,6.9,6.9,48,0.00,CLR,SKC,0.02,WeatherDisplay:10.37,2013-08-04 18:01:00,
2013-08-04 14:06:00,74.1,53.2,28.70,NW,315,6.9,6.9,48,0.00,CLR,SKC,0.02,WeatherDisplay:10.37,2013-08-04 18:06:00,
2013-08-04 14:11:00,73.2,54.0,28.71,NW,315,10.4,10.4,51,0.00,CLR,SKC,0.02,WeatherDisplay:10.37,2013-08-04 18:11:00,
2013-08-04 14:16:00,72.1,55.1,28.70,NW,315,10.4,10.4,55,0.00,CLR,SKC,0.02,WeatherDisplay:10.37,2013-08-04 18:16:00,
2013-08-04 14:21:00,71.1,54.6,28.70,NW,315,11.5,11.5,56,0.00,CLR,SKC,0.02,WeatherDisplay:10.37,2013-08-04 18:21:00,
2013-08-04 14:26:00,70.9,56.3,28.70,NW,315,11.5,11.5,60,0.00,CLR,SKC,0.02,WeatherDisplay:10.37,2013-08-04 18:26:00,
2013-08-04 14:31:00,70.7,56.6,28.70,NW,315,9.2,9.2,61,0.00,CLR,SKC,0.02,WeatherDisplay:10.37,2013-08-04 18:31:00,
2013-08-04 14:36:00,70.9,57.2,28.70,NW,315,9.2,9.2,62,0.00,CLR,SKC,0.02,WeatherDisplay:10.37,2013-08-04 18:36:00,
2013-08-04 14:41:00,70.7,57.0,28.70,West,270,10.4,10.4,62,0.00,CLR,SKC,0.02,WeatherDisplay:10.37,2013-08-04 18:41:00,
2013-08-04 14:46:00,71.1,57.8,28.70,NW,315,8.1,8.1,63,0.00,CLR,SKC,0.02,WeatherDisplay:10.37,2013-08-04 18:46:00,
2013-08-04 14:51:00,72.3,58.1,28.70,NW,315,8.1,8.1,61,0.00,CLR,SKC,0.02,WeatherDisplay:10.37,2013-08-04 18:51:00,
2013-08-04 14:56:00,73.0,59.2,28.70,NW,315,8.1,8.1,62,0.00,CLR,SKC,0.02,WeatherDisplay:10.37,2013-08-04 18:56:00,
2013-08-04 15:01:00,73.8,57.6,28.70,West,270,12.7,12.7,57,0.00,CLR,SKC,0.02,WeatherDisplay:10.37,2013-08-04 19:01:00,
2013-08-04 15:06:00,73.8,57.6,28.70,West,270,12.7,12.7,57,0.00,CLR,SKC,0.02,WeatherDisplay:10.37,2013-08-04 19:06:00,
2013-08-04 15:11:00,75.2,59.4,28.71,NW,315,8.1,8.1,58,0.00,CLR,SKC,0.02,WeatherDisplay:10.37,2013-08-04 19:11:00,
2013-08-04 15:16:00,73.4,60.0,28.70,North,0,12.7,12.7,63,0.00,CLR,SKC,0.02,WeatherDisplay:10.37,2013-08-04 19:16:00,
2013-08-04 15:21:00,72.1,58.4,28.70,West,270,11.5,11.5,62,0.00,CLR,SKC,0.02,WeatherDisplay:10.37,2013-08-04 19:21:00,
2013-08-04 15:26:00,71.2,58.4,28.70,West,270,12.7,12.7,64,0.00,CLR,SKC,0.02,WeatherDisplay:10.37,2013-08-04 19:26:00,
2013-08-04 15:31:00,71.8,58.9,28.70,South,180,11.5,11.5,64,0.00,CLR,SKC,0.02,WeatherDisplay:10.37,2013-08-04 19:31:00,
2013-08-04 15:36:00,72.5,60.1,28.70,West,270,8.1,8.1,65,0.00,CLR,SKC,0.02,WeatherDisplay:10.37,2013-08-04 19:36:00,
2013-08-04 15:41:00,73.4,60.5,28.70,West,270,11.5,11.5,64,0.00,CLR,SKC,0.02,WeatherDisplay:10.37,2013-08-04 19:41:00,
2013-08-04 15:46:00,73.9,60.5,28.69,NW,315,12.7,12.7,63,0.00,CLR,SKC,0.02,WeatherDisplay:10.37,2013-08-04 19:46:00,
2013-08-04 15:51:00,73.6,60.6,28.69,NW,315,11.5,11.5,64,0.00,CLR,SKC,0.02,WeatherDisplay:10.37,2013-08-04 19:51:00,
2013-08-04 15:56:00,73.2,60.7,28.70,NW,315,15.0,15.0,65,0.00,CLR,SKC,0.02,WeatherDisplay:10.37,2013-08-04 19:56:00,
2013-08-04 16:01:00,72.5,59.6,28.70,West,270,13.8,13.8,64,0.00,CLR,SKC,0.02,WeatherDisplay:10.37,2013-08-04 20:01:00,
2013-08-04 16:06:00,72.9,60.0,28.69,West,270,13.8,13.8,64,0.00,CLR,SKC,0.02,WeatherDisplay:10.37,2013-08-04 20:06:00,
2013-08-04 16:11:00,73.2,59.9,28.70,NW,315,9.2,9.2,63,0.00,CLR,SKC,0.02,WeatherDisplay:10.37,2013-08-04 20:11:00,
2013-08-04 16:16:00,73.2,60.3,28.69,NW,315,6.9,6.9,64,0.00,CLR,SKC,0.02,WeatherDisplay:10.37,2013-08-04 20:16:00,
2013-08-04 16:21:00,73.4,60.5,28.69,NW,315,9.2,9.2,64,0.00,CLR,SKC,0.02,WeatherDisplay:10.37,2013-08-04 20:21:00,
2013-08-04 16:26:00,73.2,62.4,28.69,West,270,12.7,12.7,69,0.00,CLR,SKC,0.02,WeatherDisplay:10.37,2013-08-04 20:26:00,
2013-08-04 16:31:00,73.2,62.4,28.69,North,0,11.5,11.5,69,0.00,CLR,SKC,0.02,WeatherDisplay:10.37,2013-08-04 20:31:00,
2013-08-04 16:36:00,72.9,61.7,28.69,NNW,338,10.4,10.4,68,0.00,CLR,SKC,0.02,WeatherDisplay:10.37,2013-08-04 20:36:00,
2013-08-04 16:42:00,72.3,61.6,28.69,NW,315,12.7,12.7,69,0.00,CLR,SKC,0.02,WeatherDisplay:10.37,2013-08-04 20:42:00,
2013-08-04 16:47:00,72.3,60.7,28.69,North,0,15.0,15.0,67,0.00,CLR,SKC,0.02,WeatherDisplay:10.37,2013-08-04 20:47:00,
2013-08-04 16:52:00,72.7,61.9,28.69,NW,315,10.4,10.4,69,0.00,CLR,SKC,0.02,WeatherDisplay:10.37,2013-08-04 20:52:00,
2013-08-04 16:57:00,72.9,62.1,28.69,NNE,22,8.1,8.1,69,0.00,CLR,SKC,0.02,WeatherDisplay:10.37,2013-08-04 20:57:00,
2013-08-04 17:02:00,72.9,62.1,28.69,North,0,12.7,12.7,69,0.00,CLR,SKC,0.02,WeatherDisplay:10.37,2013-08-04 21:02:00,
2013-08-04 17:07:00,72.9,62.1,28.69,North,0,12.7,12.7,69,0.00,CLR,SKC,0.02,WeatherDisplay:10.37,2013-08-04 21:07:00,
2013-08-04 17:12:00,72.1,62.2,28.69,NW,315,8.1,8.1,71,0.00,CLR,SKC,0.02,WeatherDisplay:10.37,2013-08-04 21:12:00,
2013-08-04 17:17:00,71.8,62.7,28.69,NNW,338,10.7,10.7,73,0.00,CLR,SKC,0.02,WeatherDisplay:10.37,2013-08-04 21:17:00,
2013-08-04 17:22:00,71.8,62.3,28.69,NW,315,13.0,13.0,72,0.00,CLR,SKC,0.02,WeatherDisplay:10.37,2013-08-04 21:22:00,
2013-08-04 17:27:00,72.1,63.0,28.69,NW,315,15.0,15.0,73,0.00,CLR,SKC,0.02,WeatherDisplay:10.37,2013-08-04 21:27:00,
2013-08-04 17:32:00,72.3,62.4,28.70,NW,315,12.7,12.7,71,0.00,CLR,SKC,0.02,WeatherDisplay:10.37,2013-08-04 21:32:00,
2013-08-04 17:37:00,72.3,63.2,28.69,NW,315,11.5,11.5,73,0.00,CLR,SKC,0.02,WeatherDisplay:10.37,2013-08-04 21:37:00,
2013-08-04 17:42:00,72.5,62.2,28.69,SE,135,11.5,11.5,70,0.00,CLR,SKC,0.02,WeatherDisplay:10.37,2013-08-04 21:42:00,
2013-08-04 17:47:00,72.3,62.8,28.70,West,270,13.8,13.8,72,0.00,CLR,SKC,0.02,WeatherDisplay:10.37,2013-08-04 21:47:00,
2013-08-04 17:49:00,72.3,62.8,28.70,NW,315,12.7,12.7,72,0.00,CLR,SKC,0.02,WeatherDisplay:10.37,2013-08-04 21:49:00,
2013-08-04 17:54:00,72.5,63.4,28.70,North,0,10.4,10.4,73,0.00,CLR,SKC,0.02,WeatherDisplay:10.37,2013-08-04 21:54:00,
2013-08-04 17:59:00,72.7,63.1,28.70,NW,315,9.2,9.2,72,0.00,CLR,SKC,0.02,WeatherDisplay:10.37,2013-08-04 21:59:00,
2013-08-04 18:04:00,72.7,63.1,28.70,West,270,8.1,8.1,72,0.00,CLR,SKC,0.02,WeatherDisplay:10.37,2013-08-04 22:04:00,
2013-08-04 18:09:00,71.6,62.9,28.70,NW,315,11.5,11.5,74,0.00,CLR,SKC,0.02,WeatherDisplay:10.37,2013-08-04 22:09:00,
2013-08-04 18:14:00,70.9,62.9,28.70,NW,315,11.5,11.5,76,0.00,CLR,SKC,0.02,WeatherDisplay:10.37,2013-08-04 22:14:00,
2013-08-04 18:19:00,70.7,62.0,28.70,NW,315,8.1,8.1,74,0.00,CLR,SKC,0.02,WeatherDisplay:10.37,2013-08-04 22:19:00,
2013-08-04 18:24:00,70.5,61.8,28.70,NW,315,6.9,6.9,74,0.00,CLR,SKC,0.02,WeatherDisplay:10.37,2013-08-04 22:24:00,
2013-08-04 18:29:00,71.1,62.7,28.69,NW,315,6.9,6.9,75,0.00,CLR,SKC,0.02,WeatherDisplay:10.37,2013-08-04 22:29:00,
2013-08-04 18:34:00,71.2,62.1,28.69,NW,315,8.1,8.1,73,0.00,CLR,SKC,0.02,WeatherDisplay:10.37,2013-08-04 22:34:00,
2013-08-04 18:39:00,71.6,62.5,28.69,NW,315,9.2,9.2,73,0.00,CLR,SKC,0.02,WeatherDisplay:10.37,2013-08-04 22:39:00,
2013-08-04 18:44:00,71.6,62.9,28.70,West,270,8.1,8.1,74,0.00,CLR,SKC,0.02,WeatherDisplay:10.37,2013-08-04 22:44:00,
2013-08-04 18:49:00,71.8,63.4,28.69,NW,315,8.1,8.1,75,0.00,CLR,SKC,0.02,WeatherDisplay:10.37,2013-08-04 22:49:00,
2013-08-04 18:54:00,71.4,63.1,28.70,West,270,11.5,11.5,75,0.00,CLR,SKC,0.02,WeatherDisplay:10.37,2013-08-04 22:54:00,
2013-08-04 18:59:00,71.2,63.3,28.69,NW,315,9.2,9.2,76,0.00,CLR,SKC,0.02,WeatherDisplay:10.37,2013-08-04 22:59:00,
2013-08-04 19:01:00,71.1,63.1,28.69,North,0,11.5,11.5,76,0.00,CLR,SKC,0.02,WeatherDisplay:10.37,2013-08-04 23:01:00,
2013-08-04 19:06:00,71.1,63.5,28.69,NW,315,11.5,11.5,77,0.00,CLR,SKC,0.02,WeatherDisplay:10.37,2013-08-04 23:06:00,
2013-08-04 19:11:00,71.2,64.0,28.69,NW,315,4.6,4.6,78,0.00,CLR,SKC,0.02,WeatherDisplay:10.37,2013-08-04 23:11:00,
2013-08-04 19:16:00,71.1,63.9,28.69,NW,315,8.1,8.1,78,0.00,CLR,SKC,0.02,WeatherDisplay:10.37,2013-08-04 23:16:00,
2013-08-04 19:20:00,70.9,63.3,28.69,West,270,9.2,9.2,77,0.00,CLR,SKC,0.02,WeatherDisplay:10.37,2013-08-04 23:20:00,
2013-08-04 19:26:00,70.5,63.3,28.70,NW,315,9.2,9.2,78,0.00,CLR,SKC,0.02,WeatherDisplay:10.37,2013-08-04 23:26:00,
2013-08-04 19:31:00,70.5,63.0,28.70,NW,315,10.4,10.4,77,0.00,CLR,SKC,0.02,WeatherDisplay:10.37,2013-08-04 23:31:00,
2013-08-04 19:36:00,70.2,63.0,28.70,West,270,8.1,8.1,78,0.00,CLR,SKC,0.02,WeatherDisplay:10.37,2013-08-04 23:36:00,
2013-08-04 19:41:00,70.0,62.8,28.71,West,270,6.9,6.9,78,0.00,CLR,SKC,0.02,WeatherDisplay:10.37,2013-08-04 23:41:00,
2013-08-04 19:46:00,69.6,62.8,28.70,NW,315,8.1,8.1,79,0.00,CLR,SKC,0.02,WeatherDisplay:10.37,2013-08-04 23:46:00,
2013-08-04 19:51:00,69.4,62.3,28.71,West,270,10.7,10.7,78,0.00,CLR,SKC,0.02,WeatherDisplay:10.37,2013-08-04 23:51:00,
2013-08-04 19:56:00,69.1,62.3,28.70,North,0,10.4,10.4,79,0.00,CLR,SKC,0.02,WeatherDisplay:10.37,2013-08-04 23:56:00,
2013-08-04 20:01:00,68.7,61.9,28.71,NW,315,8.1,8.1,79,0.00,CLR,SKC,0.02,WeatherDisplay:10.37,2013-08-05 00:01:00,
2013-08-04 20:05:00,68.7,61.9,28.71,NW,315,8.1,8.1,79,0.00,CLR,SKC,0.02,WeatherDisplay:10.37,2013-08-05 00:05:00,
2013-08-04 20:11:00,68.2,61.8,28.71,West,270,6.9,6.9,80,0.00,CLR,SKC,0.02,WeatherDisplay:10.37,2013-08-05 00:11:00,
2013-08-04 20:16:00,68.0,61.6,28.71,NW,315,5.8,5.8,80,0.00,CLR,SKC,0.02,WeatherDisplay:10.37,2013-08-05 00:16:00,
2013-08-04 20:21:00,67.8,61.8,28.71,West,270,5.8,5.8,81,0.00,CLR,SKC,0.02,WeatherDisplay:10.37,2013-08-05 00:21:00,
2013-08-04 20:26:00,67.5,61.8,28.71,West,270,3.5,3.5,82,0.00,CLR,SKC,0.02,WeatherDisplay:10.37,2013-08-05 00:26:00,
2013-08-04 20:31:00,67.3,61.6,28.71,West,270,5.8,5.8,82,0.00,CLR,SKC,0.02,WeatherDisplay:10.37,2013-08-05 00:31:00,
2013-08-04 20:36:00,66.9,61.2,28.72,NW,315,4.6,4.6,82,0.00,CLR,SKC,0.02,WeatherDisplay:10.37,2013-08-05 00:36:00,
2013-08-04 20:41:00,66.7,61.4,28.71,NW,315,5.8,5.8,83,0.00,CLR,SKC,0.02,WeatherDisplay:10.37,2013-08-05 00:41:00,
2013-08-04 20:46:00,66.7,61.4,28.72,NW,315,6.9,6.9,83,0.00,CLR,SKC,0.02,WeatherDisplay:10.37,2013-08-05 00:46:00,
2013-08-04 20:51:00,66.6,60.9,28.71,NW,315,8.1,8.1,82,0.00,CLR,SKC,0.02,WeatherDisplay:10.37,2013-08-05 00:51:00,
2013-08-04 20:56:00,66.4,60.7,28.72,West,270,5.8,5.8,82,0.00,CLR,SKC,0.02,WeatherDisplay:10.37,2013-08-05 00:56:00,
2013-08-04 21:01:00,66.4,60.4,28.71,NW,315,5.8,5.8,81,0.00,CLR,SKC,0.02,WeatherDisplay:10.37,2013-08-05 01:01:00,
2013-08-04 21:06:00,66.4,60.4,28.72,NW,315,3.5,3.5,81,0.00,CLR,SKC,0.02,WeatherDisplay:10.37,2013-08-05 01:06:00,
2013-08-04 21:11:00,66.2,60.5,28.72,NW,315,5.8,5.8,82,0.00,CLR,SKC,0.02,WeatherDisplay:10.37,2013-08-05 01:11:00,
2013-08-04 21:16:00,66.0,60.4,28.72,NW,315,5.8,5.8,82,0.00,CLR,SKC,0.02,WeatherDisplay:10.37,2013-08-05 01:16:00,
2013-08-04 21:21:00,65.8,60.2,28.72,West,270,4.6,4.6,82,0.00,CLR,SKC,0.02,WeatherDisplay:10.37,2013-08-05 01:21:00,
2013-08-04 21:26:00,65.7,60.0,28.72,NW,315,5.8,5.8,82,0.00,CLR,SKC,0.02,WeatherDisplay:10.37,2013-08-05 01:26:00,
2013-08-04 21:31:00,65.5,60.2,28.73,West,270,4.6,4.6,83,0.00,CLR,SKC,0.02,WeatherDisplay:10.37,2013-08-05 01:31:00,
2013-08-04 21:36:00,65.3,60.0,28.73,NW,315,5.8,5.8,83,0.00,CLR,SKC,0.02,WeatherDisplay:10.37,2013-08-05 01:36:00,
2013-08-04 21:41:00,64.9,60.0,28.73,NW,315,6.9,6.9,84,0.00,CLR,SKC,0.02,WeatherDisplay:10.37,2013-08-05 01:41:00,
2013-08-04 21:46:00,64.8,60.1,28.73,NW,315,6.9,6.9,85,0.00,CLR,SKC,0.02,WeatherDisplay:10.37,2013-08-05 01:46:00,
2013-08-04 21:51:00,64.4,59.8,28.73,NW,315,5.8,5.8,85,0.00,CLR,SKC,0.02,WeatherDisplay:10.37,2013-08-05 01:51:00,
2013-08-04 21:56:00,64.2,59.9,28.73,NW,315,5.8,5.8,86,0.00,CLR,SKC,0.02,WeatherDisplay:10.37,2013-08-05 01:56:00,
2013-08-04 22:01:00,64.0,59.8,28.73,West,270,5.8,5.8,86,0.00,CLR,SKC,0.02,WeatherDisplay:10.37,2013-08-05 02:01:00,
2013-08-04 22:05:00,64.0,59.8,28.73,West,270,5.8,5.8,86,0.00,CLR,SKC,0.02,WeatherDisplay:10.37,2013-08-05 02:05:00,
2013-08-04 22:11:00,63.7,59.7,28.73,NW,315,5.8,5.8,87,0.00,CLR,SKC,0.02,WeatherDisplay:10.37,2013-08-05 02:11:00,
2013-08-04 22:16:00,63.7,59.7,28.74,NW,315,5.8,5.8,87,0.00,CLR,SKC,0.02,WeatherDisplay:10.37,2013-08-05 02:16:00,
2013-08-04 22:21:00,63.5,59.9,28.73,NW,315,5.8,5.8,88,0.00,CLR,SKC,0.02,WeatherDisplay:10.37,2013-08-05 02:21:00,
2013-08-04 22:26:00,63.3,59.7,28.74,NW,315,5.8,5.8,88,0.00,CLR,SKC,0.02,WeatherDisplay:10.37,2013-08-05 02:26:00,
2013-08-04 22:31:00,63.1,59.8,28.74,NW,315,5.8,5.8,89,0.00,CLR,SKC,0.02,WeatherDisplay:10.37,2013-08-05 02:31:00,
2013-08-04 22:36:00,63.0,59.7,28.73,NW,315,5.8,5.8,89,0.00,CLR,SKC,0.02,WeatherDisplay:10.37,2013-08-05 02:36:00,
2013-08-04 22:41:00,62.8,59.8,28.73,NW,315,5.8,5.8,90,0.00,CLR,SKC,0.02,WeatherDisplay:10.37,2013-08-05 02:41:00,
2013-08-04 22:46:00,62.6,59.6,28.73,NW,315,5.8,5.8,90,0.00,CLR,SKC,0.02,WeatherDisplay:10.37,2013-08-05 02:46:00,
2013-08-04 22:51:00,62.4,59.8,28.73,NW,315,4.6,4.6,91,0.00,CLR,SKC,0.02,WeatherDisplay:10.37,2013-08-05 02:51:00,
2013-08-04 22:55:00,62.2,59.6,28.74,NW,315,6.9,6.9,91,0.00,CLR,SKC,0.02,WeatherDisplay:10.37,2013-08-05 02:55:00,
2013-08-04 23:01:00,62.1,59.7,28.74,NW,315,5.8,5.8,92,0.00,CLR,SKC,0.02,WeatherDisplay:10.37,2013-08-05 03:01:00,
2013-08-04 23:06:00,62.1,59.7,28.73,NW,315,4.6,4.6,92,0.00,CLR,SKC,0.02,WeatherDisplay:10.37,2013-08-05 03:06:00,
2013-08-04 23:11:00,61.7,59.7,28.73,North,0,4.6,4.6,93,0.00,CLR,SKC,0.02,WeatherDisplay:10.37,2013-08-05 03:11:00,
2013-08-04 23:16:00,61.5,59.5,28.73,West,270,3.5,3.5,93,0.00,CLR,SKC,0.02,WeatherDisplay:10.37,2013-08-05 03:16:00,
2013-08-04 23:21:00,61.3,59.3,28.73,NW,315,3.5,3.5,93,0.00,CLR,SKC,0.02,WeatherDisplay:10.37,2013-08-05 03:21:00,
2013-08-04 23:26:00,61.3,59.3,28.73,North,0,3.5,3.5,93,0.00,CLR,SKC,0.02,WeatherDisplay:10.37,2013-08-05 03:26:00,
2013-08-04 23:30:00,61.3,59.3,28.73,NW,315,2.3,2.3,93,0.00,CLR,SKC,0.02,WeatherDisplay:10.37,2013-08-05 03:30:00,
2013-08-04 23:36:00,61.3,59.6,28.73,North,0,4.6,4.6,94,0.00,CLR,SKC,0.02,WeatherDisplay:10.37,2013-08-05 03:36:00,
2013-08-04 23:41:00,61.2,59.4,28.73,North,0,2.3,2.3,94,0.00,CLR,SKC,0.02,WeatherDisplay:10.37,2013-08-05 03:41:00,
2013-08-04 23:46:00,61.2,59.1,28.73,NW,315,2.3,2.3,93,0.00,CLR,SKC,0.02,WeatherDisplay:10.37,2013-08-05 03:46:00,
2013-08-04 23:50:00,61.2,59.1,28.73,North,0,4.6,4.6,93,0.00,CLR,SKC,0.02,WeatherDisplay:10.37,2013-08-05 03:50:00,
2013-08-04 23:56:00,61.2,59.4,28.73,North,0,3.5,3.5,94,0.00,CLR,SKC,0.02,WeatherDisplay:10.37,2013-08-05 03:56:00,